Weather History for KONZ - March, 2012

Change the Weather History Date:

Thursday, March 1, 2012

  Actual Average (KDTW) Record (KDTW)
Temperature  
Mean Temperature 40 °F 32 °F  
Max Temperature 44 °F 40 °F 64 °F (1992)
Min Temperature 37 °F 24 °F 1 °F (1962)
Degree Days  
Heating Degree Days 24 33  
Month to date heating degree days 33  
Since 1 July heating degree days 4586  
Cooling Degree Days 0 0  
Month to date cooling degree days 0  
Year to date cooling degree days 0  
Moisture  
Dew Point 34 °F    
Average Humidity 79    
Maximum Humidity 87    
Minimum Humidity 66    
Precipitation  
Precipitation 0.02 in 0.07 in 1.29 in (2007)
Month to date precipitation 0.07  
Year to date precipitation 4.05  
Snow  
Snow 0.00 in 0.30 in 6.20 in (1976)
Month to date snowfall 0.3  
Since 1 July snowfall 34.2  
Snow Depth -    
Sea Level Pressure  
Sea Level Pressure 29.74 in    
Wind  
Wind Speed 11 mph (WSW)    
Max Wind Speed 16 mph    
Max Gust Speed 24 mph    
Visibility 10 miles    
Events Rain    
T = Trace of Precipitation, MM = Missing Value Source: NWS Daily Summary

Daily Weather History Graph

Daily Weather History Graph

Search for Another Location

Airport or City:

Trip Planner

Search our weather history database for the weather conditions in past years. The results will help you decide how hot, cold, wet, or windy it might be!

Date:

Astronomy

Mar. 01, 2012 Rise Set
Actual Time 7:07 AM EST 6:23 PM EST
Civil Twilight 6:38 AM EST 6:51 PM EST
Nautical Twilight 6:06 AM EST 7:23 PM EST
Astronomical Twilight 5:34 AM EST 7:56 PM EST
Moon 11:37 AM EST 2:09 AM EST
Length of Visible Light 12h 12m
Length of Day
11h 16m
First Quarter, 56% of the Moon is Illuminated
Mar 1
First Quarter
Mar 8
Full
Mar 14
Last Quarter
Mar 22
New
Mar 30
First Quarter

Hourly Weather History & Observations

Time (EST) Temp. Windchill Dew Point Humidity Pressure Visibility Wind Dir Wind Speed Gust Speed Precip Events Conditions
12:14 AM 42.8 °F 35.4 °F 39.2 °F 87% 29.54 in 7.0 mi West 15.0 mph 21.9 mph 0.02 in Rain Light Rain
12:34 AM 41.0 °F 34.7 °F 37.4 °F 87% 29.55 in 10.0 mi West 10.4 mph - 0.02 in Rain Light Rain
12:54 AM 41.0 °F 34.7 °F 37.4 °F 87% 29.55 in 10.0 mi West 10.4 mph - 0.02 in   Overcast
1:34 AM 39.2 °F 33.0 °F 35.6 °F 87% 29.56 in 10.0 mi West 9.2 mph - N/A   Overcast
2:14 AM 39.2 °F 31.6 °F 33.8 °F 81% 29.57 in 10.0 mi WSW 12.7 mph 18.4 mph N/A   Overcast
2:34 AM 37.4 °F 28.2 °F 32.0 °F 81% 29.57 in 10.0 mi West 16.1 mph 24.2 mph N/A   Overcast
3:14 AM 37.4 °F 30.8 °F 32.0 °F 81% 29.58 in 10.0 mi West 9.2 mph - N/A   Overcast
3:34 AM 37.4 °F 30.3 °F 32.0 °F 81% 29.59 in 10.0 mi West 10.4 mph - N/A   Overcast
3:54 AM 37.4 °F 29.8 °F 32.0 °F 81% 29.59 in 7.0 mi WSW 11.5 mph 16.1 mph N/A   Overcast
4:13 AM 37.4 °F 29.8 °F 32.0 °F 81% 29.60 in 10.0 mi West 11.5 mph 19.6 mph N/A   Overcast
4:34 AM 37.4 °F 29.8 °F 33.8 °F 87% 29.61 in 7.0 mi West 11.5 mph - N/A   Overcast
5:14 AM 37.4 °F 31.4 °F 33.8 °F 87% 29.61 in 10.0 mi WSW 8.1 mph 17.3 mph N/A   Overcast
5:34 AM 37.4 °F 30.8 °F 33.8 °F 87% 29.62 in 10.0 mi SW 9.2 mph - N/A   Overcast
6:14 AM 37.4 °F 30.8 °F 33.8 °F 87% 29.63 in 10.0 mi SW 9.2 mph 16.1 mph N/A   Overcast
6:34 AM 37.4 °F 29.8 °F 33.8 °F 87% 29.64 in 10.0 mi WSW 11.5 mph 17.3 mph N/A   Overcast
6:54 AM 37.4 °F 28.2 °F 33.8 °F 87% 29.64 in 10.0 mi WSW 16.1 mph - N/A   Overcast
7:14 AM 37.4 °F 30.3 °F 33.8 °F 87% 29.65 in 10.0 mi WSW 10.4 mph 19.6 mph N/A   Overcast
7:34 AM 37.4 °F 28.9 °F 33.8 °F 87% 29.66 in 10.0 mi WSW 13.8 mph 19.6 mph N/A   Overcast
8:14 AM 37.4 °F 29.3 °F 33.8 °F 87% 29.68 in 10.0 mi WSW 12.7 mph 17.3 mph N/A   Overcast
8:34 AM 37.4 °F 30.8 °F 33.8 °F 87% 29.69 in 4.0 mi WSW 9.2 mph 19.6 mph N/A   Overcast
9:14 AM 37.4 °F 31.4 °F 33.8 °F 87% 29.71 in 1.8 mi West 8.1 mph - N/A Rain Light Rain
9:34 AM 37.4 °F 30.8 °F 33.8 °F 87% 29.71 in 7.0 mi West 9.2 mph 19.6 mph N/A Rain Light Rain
10:14 AM 39.2 °F 31.6 °F 33.8 °F 81% 29.72 in 10.0 mi West 12.7 mph - N/A   Overcast
10:34 AM 39.2 °F 33.0 °F 33.8 °F 81% 29.73 in 10.0 mi West 9.2 mph 16.1 mph N/A   Overcast
10:54 AM 39.2 °F 32.5 °F 32.0 °F 75% 29.73 in 10.0 mi WSW 10.4 mph 16.1 mph N/A   Overcast
11:14 AM 39.2 °F 31.6 °F 32.0 °F 75% 29.75 in 10.0 mi West 12.7 mph 17.3 mph N/A   Overcast
11:34 AM 39.2 °F 30.8 °F 32.0 °F 75% 29.75 in 10.0 mi WSW 15.0 mph 21.9 mph N/A   Overcast
12:14 PM 42.8 °F 35.8 °F 33.8 °F 70% 29.76 in 10.0 mi WSW 13.8 mph 18.4 mph N/A   Overcast
12:34 PM 41.0 °F 33.1 °F 33.8 °F 76% 29.76 in 10.0 mi WSW 15.0 mph 20.7 mph N/A   Overcast
1:14 PM 42.8 °F 36.2 °F 35.6 °F 76% 29.77 in 10.0 mi WSW 12.7 mph 17.3 mph N/A   Overcast
1:34 PM 42.8 °F 36.2 °F 35.6 °F 76% 29.77 in 10.0 mi WSW 12.7 mph - N/A   Overcast
1:54 PM 44.6 °F 39.2 °F 35.6 °F 71% 29.77 in 10.0 mi West 10.4 mph 16.1 mph N/A   Overcast
2:14 PM 42.8 °F 37.5 °F 33.8 °F 70% 29.78 in 10.0 mi WSW 9.2 mph - N/A   Overcast
2:34 PM 42.8 °F 36.2 °F 33.8 °F 70% 29.79 in 10.0 mi West 12.7 mph 16.1 mph N/A   Overcast
2:54 PM 42.8 °F 37.0 °F 33.8 °F 70% 29.79 in 10.0 mi West 10.4 mph 17.3 mph N/A   Overcast
3:14 PM 44.6 °F 39.7 °F 33.8 °F 66% 29.79 in 10.0 mi West 9.2 mph - N/A   Overcast
3:34 PM 44.6 °F 38.8 °F 33.8 °F 66% 29.79 in 10.0 mi West 11.5 mph - N/A   Overcast
3:54 PM 44.6 °F 40.2 °F 33.8 °F 66% 29.80 in 10.0 mi West 8.1 mph - N/A   Overcast
4:14 PM 42.8 °F 36.6 °F 33.8 °F 70% 29.80 in 10.0 mi WSW 11.5 mph 17.3 mph N/A   Overcast
4:34 PM 42.8 °F 36.2 °F 33.8 °F 70% 29.81 in 10.0 mi WSW 12.7 mph 17.3 mph N/A   Overcast
4:54 PM 42.8 °F 37.0 °F 33.8 °F 70% 29.82 in 10.0 mi SW 10.4 mph - N/A   Overcast
5:14 PM 42.8 °F 37.0 °F 33.8 °F 70% 29.82 in 10.0 mi WSW 10.4 mph 18.4 mph N/A   Overcast
5:34 PM 42.8 °F 37.5 °F 33.8 °F 70% 29.82 in 10.0 mi WSW 9.2 mph - N/A   Overcast
5:54 PM 42.8 °F 37.5 °F 33.8 °F 70% 29.84 in 10.0 mi WSW 9.2 mph 16.1 mph N/A   Overcast
6:14 PM 42.8 °F 36.2 °F 33.8 °F 70% 29.85 in 10.0 mi WSW 12.7 mph - N/A   Overcast
6:34 PM 41.0 °F 35.8 °F 33.8 °F 76% 29.85 in 10.0 mi WSW 8.1 mph - N/A   Overcast
6:54 PM 41.0 °F 35.2 °F 33.8 °F 76% 29.86 in 10.0 mi WSW 9.2 mph - N/A   Overcast
7:14 PM 41.0 °F 36.4 °F 33.8 °F 76% 29.87 in 10.0 mi WSW 6.9 mph - N/A   Overcast
7:34 PM 41.0 °F 39.0 °F 33.8 °F 76% 29.87 in 10.0 mi SW 3.5 mph - N/A   Overcast
7:54 PM 41.0 °F - 33.8 °F 76% 29.87 in 10.0 mi Calm Calm - N/A   Overcast
8:14 PM 41.0 °F - 33.8 °F 76% 29.87 in 10.0 mi Calm Calm - N/A   Overcast
8:33 PM 39.2 °F - 35.6 °F 87% 29.87 in 10.0 mi Calm Calm - N/A   Overcast
8:54 PM 39.2 °F 35.9 °F 35.6 °F 87% 29.88 in 10.0 mi SSW 4.6 mph - N/A   Overcast
9:14 PM 39.2 °F 37.0 °F 35.6 °F 87% 29.87 in 10.0 mi SSW 3.5 mph - N/A   Overcast
9:33 PM 39.2 °F 37.0 °F 35.6 °F 87% 29.87 in 10.0 mi SSW 3.5 mph - N/A   Overcast
9:54 PM 39.2 °F 37.0 °F 35.6 °F 87% 29.87 in 10.0 mi South 3.5 mph - N/A   Overcast
10:14 PM 39.2 °F 35.0 °F 35.6 °F 87% 29.87 in 10.0 mi SSW 5.8 mph - N/A   Overcast
10:34 PM 39.2 °F 35.9 °F 35.6 °F 87% 29.87 in 5.0 mi South 4.6 mph - N/A   Overcast
10:54 PM 39.2 °F 35.0 °F 35.6 °F 87% 29.87 in 5.0 mi South 5.8 mph - N/A   Overcast
11:14 PM 39.2 °F 35.0 °F 35.6 °F 87% 29.88 in 10.0 mi SSW 5.8 mph - N/A   Overcast
11:34 PM 39.2 °F 35.0 °F 35.6 °F 87% 29.87 in 10.0 mi SSW 5.8 mph - N/A   Overcast
11:54 PM 39.2 °F 35.9 °F 35.6 °F 87% 29.87 in 10.0 mi SSW 4.6 mph - N/A   Overcast